Location: Oberkirch
(48.5323°N, 8.0787°E)
Time: 07:32:52
(UTC+00:00)

Tiros 1 - Pass Details

Date: 23 February 2026
Orbit: 618 x 649 km, 48.4° (Epoch: 12 March)

Event Time Altitude Azimuth Distance (km) Brightness Sun altitude
Rises 06:45:58 0° 236° (SW) 2,920 10.2 3.1°
Reaches altitude 10° 06:48:20 10° 231° (SW) 2,008 9.4 3.5°
Maximum altitude 06:52:48 50° 156° (SSE) 799 8.1 4.2°
Drops below altitude 10° 06:57:15 10° 81° (E) 1,996 10.9 4.9°
Sets 06:59:36 0° 76° (ENE) 2,900 11.5 5.3°
